sat.trackr.live / text

‹ back to catalog

STARLINK-37506

NORAD 69261 · 2026-117Z

PAYLOAD ACTIVE UNKNOWN

§ Identity

Operator
Country
US
Launch date
2026-05-29
Launch site
AFETR
Launch vehicle
Mass (kg)
RCS (m²)

Purposes: comms

External: N2YO · Heavens-Above · Gunter

§ Orbital elements

Epoch: 2026-09-19T23:25:45.533280Z

Period
93.85 min
Inclination
53.1581°
Eccentricity
0.0001139
Mean motion
15.34400059 rev/d
Perigee alt
461.9 km
Apogee alt
463.5 km
Semi-major
6,840.8 km
B*
5.9606e-4
RAAN
156.4020°
Arg perigee
87.2581°
Mean anomaly
272.8552°
Rev number
1,757

§ Raw data

STARLINK-375061 69261U 26117Z   26262.97622145  .00019816  00000+0  59606-3 0  99982 69261  53.1581 156.4020 0001139  87.2581 272.8552 15.34400059 17574

JSON: /api/v1/satellites/69261 · /tle

For live sub-satellite position, see the globe view (requires WebGL).

§ Visibility from observer

Set your observer location to see the next 7 days of passes ≥ 10°. The values pass through the URL so the page stays shareable.

No JS? Fill the form by hand. The geolocation button needs JavaScript.